Flag for Netherlands Weather past 2 weeks in Rotterdam, Netherlands

43 °F


Feels Like: 35 °F
Forecast: 44 / 47 °F
Wind: 16 mph from South

Location: Rotterdam Zestienhoven Airport

Current Time: Nov 27, 2015 at 8:40:38 PM

Latest Report: Nov 27, 2015 at 7:55 PM

Visibility: 5 mi

Pressure: 29.77 "Hg

Humidity: 93%

Dew point: 41 °F

Location of RotterdamLocation

Historic Weather in Rotterdam — Graph


Rotterdam temperature yesterday

Maximum temperature yesterday: 50 °F (at 1:25 PM)
Minimum temperature yesterday: 36 °F (at 6:55 AM)
Average temperature yesterday: 41 °F

Past Weeks' High & Low Weather Summary

High59 °F (Nov 15, 9:55 AM)100% (Nov 14, 6:55 PM)30.24 "Hg (Nov 14, 6:55 PM)
Low28 °F (Nov 23, 2:25 AM)59% (Nov 13, 12:25 PM)29.27 "Hg (Nov 21, 9:25 AM)
Average48 °F84%29.86 "Hg
* Reported Nov 12 7:25 PM — Nov 27 7:25 PM, Rotterdam, Weather by CustomWeather, © 2015

Note: Actual official high and low records may vary slightly from our data, if they occured in-between our weather recording intervals... More about our weather records


Rotterdam weather history for previous 24 hours

Time TempWeatherWind HumidityBarometerVisibility
7:25 PM
Fri, Nov 27
43 °FDrizzle. Mostly cloudy.17 mph93%29.77 "Hg2 mi
6:55 PM45 °FPartly cloudy.15 mph87%29.77 "HgN/A
6:25 PM45 °FPartly cloudy.16 mph87%29.80 "Hg6 mi
5:55 PM45 °FOvercast.16 mph93%29.80 "Hg5 mi
5:25 PM45 °FOvercast.15 mph93%29.83 "Hg4 mi
4:55 PM45 °FFog.17 mph93%29.83 "Hg2 mi
4:25 PM45 °FLight rain. Mostly cloudy.16 mph93%29.83 "Hg2 mi
3:55 PM45 °FLight rain. Mostly cloudy.14 mph93%29.83 "Hg1 mi
3:25 PM43 °FDrizzle. Mostly cloudy.16 mph100%29.86 "Hg1 mi
2:55 PM43 °FDrizzle. Mostly cloudy.14 mph100%29.86 "Hg1 mi
2:25 PM43 °FDrizzle. Mostly cloudy.14 mph100%29.86 "Hg2 mi
1:55 PM43 °FLight rain. Mostly cloudy.14 mph100%29.89 "Hg1 mi
1:25 PM45 °FDrizzle. Mostly cloudy.14 mph93%29.89 "Hg1 mi
12:55 PM45 °FLow clouds.13 mph87%29.92 "Hg5 mi
12:25 PM45 °FMostly cloudy.14 mph87%29.92 "Hg5 mi
11:55 AM43 °FCloudy.15 mph93%29.95 "Hg6 mi
11:25 AM43 °FMostly cloudy.14 mph93%29.98 "Hg6 mi
10:55 AM43 °FMore clouds than sun.14 mph93%29.98 "Hg6 mi
10:25 AM43 °FOvercast.12 mph93%29.98 "Hg6 mi
9:55 AM43 °FBroken clouds.12 mph93%29.98 "Hg5 mi
9:25 AM43 °FMostly cloudy.13 mph87%30.01 "Hg5 mi
8:55 AM43 °FMore clouds than sun.12 mph87%30.01 "Hg4 mi
7:55 AM41 °FOvercast.14 mph93%30.01 "Hg5 mi
7:25 AM41 °FOvercast.12 mph93%30.01 "Hg6 mi
6:55 AM41 °FOvercast.13 mph93%30.01 "Hg6 mi
6:25 AM41 °FOvercast.12 mph93%30.04 "Hg6 mi
5:55 AM41 °FOvercast.9 mph93%30.04 "Hg5 mi
4:55 AM41 °FOvercast.12 mph100%30.04 "Hg4 mi
4:25 AM41 °FOvercast.9 mph93%30.07 "Hg4 mi
3:55 AM41 °FQuite cool.10 mph93%30.07 "Hg6 mi
3:25 AM41 °FQuite cool.10 mph93%30.07 "HgN/A
2:55 AM41 °FQuite cool.9 mph93%30.09 "HgN/A
2:25 AM41 °FQuite cool.9 mph93%30.09 "HgN/A
1:55 AM41 °FQuite cool.9 mph93%30.09 "HgN/A
1:25 AM39 °FChilly.7 mph93%30.12 "HgN/A
12:55 AM39 °FChilly.7 mph100%30.12 "HgN/A
12:25 AM39 °FClear.7 mph100%30.12 "HgN/A
11:55 PM
Thu, Nov 26
41 °FClear.8 mph93%30.12 "HgN/A
10:55 PM43 °FOvercast.7 mph93%30.12 "HgN/A
10:25 PM43 °FMostly cloudy.7 mph93%30.15 "HgN/A
9:25 PM37 °FOvercast.5 mph100%30.15 "HgN/A
8:55 PM36 °FPassing clouds.5 mph100%30.15 "HgN/A
8:25 PM37 °FClear.2 mph100%30.12 "HgN/A
Weather by CustomWeather, © 2015

See weather overviewHow to use our weather pages